Location: Lamoine Observatory
(44.4551°N, 68.3470°W)
Time: 16:36:02
(UTC-04:00)

Daily predictions for brighter satellites

Satellite Brightness Start Highest point End
(mag) Time Altitude Azimuth Time Altitude Azimuth Time Altitude Azimuth
Thor Agena Rocket 3.7 20:27:19 10° NNE 20:32:39 87° WNW 20:37:53 10° SSW
Cosmos 1833 Rocket 4.0 20:27:22 10° SW 20:32:47 47° WNW 20:38:15 10° NNE
Cosmos 2233 Rocket 4.4 20:27:10 10° SSE 20:32:56 44° E 20:38:45 10° NNE
Meteor 1-18 Rocket 4.4 20:28:45 10° S 20:34:30 65° E 20:40:22 10° NNE
Cosmos 1812 3.7 20:31:04 10° SSW 20:34:48 51° WNW 20:38:35 10° N
ATLAS 3B R/B 2.8 20:28:08 10° SSW 20:35:18 75° ESE 20:42:12 10° NE
Lacrosse 5 rocket 3.5 20:32:41 10° NNW 20:36:05 21° NNE 20:39:21 10° ENE
Cosmos 1743 3.4 20:34:46 10° N 20:38:22 37° ENE 20:41:55 10° SE
ERS-2 2.9 20:36:59 10° S 20:40:35 53° WSW 20:44:13 10° NNW
Resurs 01 Rocket 2.0 20:37:21 10° S 20:41:44 68° WSW 20:46:08 10° NNW
Okean 3 3.7 20:38:03 10° SSW 20:42:20 75° W 20:46:38 10° N
Cosmos 304 Rocket 3.7 20:41:19 10° SSW 20:46:06 72° ESE 20:50:54 10° NNE
ISS -3.9 20:44:38 10° SW 20:47:52 64° SE 20:51:06 10° ENE
SJ 16-02 3.6 20:52:22 10° NNE 20:54:39 14° NE 20:56:53 10° E
Abrixas rocket 2.8 20:54:41 10° SSW 20:57:37 33° SSE 21:00:35 10° E
Aureole 2 Rocket 4.1 20:57:49 10° NNE 20:59:52 17° ENE 21:01:41 11° E
Cosmos 2084 4.1 20:56:28 10° S 21:00:18 32° ESE 21:04:00 10° ENE
BREEZE-M R/B 2.3 20:59:27 10° WSW 21:03:48 77° SSE 21:06:28 10° ENE
Spot 2 Rocket 4.0 20:58:56 10° S 21:03:53 59° WSW 21:08:53 10° NNW
Timation 2 Rocket 3.9 20:59:09 10° S 21:05:00 61° ESE 21:10:58 10° NNE
Cosmos 1340 Rocket 4.0 21:02:58 13° SE 21:05:46 25° E 21:09:07 10° NE
Cosmos 2082 Rocket 4.4 21:02:29 10° WSW 21:07:27 31° NW 21:12:29 10° N
Cosmos 2322 Rocket 2.3 21:02:36 10° NNW 21:08:14 69° ENE 21:13:09 14° SE
Cosmos 1937 Rocket 3.6 21:03:36 10° NNW 21:08:42 61° ENE 21:13:06 14° SE
USA 238 DEB 4.3 21:02:50 10° SW 21:09:38 63° NW 21:16:35 10° NNE
Cosmos 468 Rocket 4.0 21:04:25 10° S 21:09:40 72° ESE 21:14:54 10° NNE
USA 238 4.3 21:02:56 10° SW 21:09:44 64° NW 21:16:41 10° NNE
USA 32 4.5 21:05:55 10° N 21:10:58 46° E 21:15:18 14° SSE
Tiangong 2 1.7 21:09:00 10° SW 21:11:56 36° SSE 21:14:26 13° E
SL-16 R/B 2.2 21:10:27 10° NNW 21:16:11 84° ENE 21:21:03 14° SSE
ARGOS 3.2 21:11:36 10° SSE 21:16:59 85° ENE 21:22:26 10° NNW
Cosmos 1763 Rocket 3.6 21:14:09 10° S 21:19:20 55° ESE 21:24:30 10° NNE
Cosmos 1464 Rocket 4.4 21:15:19 11° SSE 21:21:12 46° E 21:27:14 10° NNE
Cosmos 841 Rocket 3.9 21:18:09 10° S 21:23:03 41° ESE 21:27:59 10° NE
Helios 1B rocket 3.8 21:22:17 10° NE 21:25:34 22° E 21:27:01 19° SE
ATLAS CENTAUR R/B 3.8 21:22:43 10° WNW 21:26:04 20° WSW 21:29:32 10° SSW
Cosmos 1975 4.0 21:24:01 10° NNW 21:27:51 42° W 21:31:38 10° SSW
BREEZE M DEB (TANK) 3.3 21:21:17 10° WNW 21:32:12 71° SW 21:34:41 22° SE
USA 245 3.2 21:32:08 23° SSE 21:34:09 68° ENE 21:38:20 10° N
USA 234 3.5 21:30:43 10° NE 21:37:16 75° NW 21:43:48 10° WSW
SPOT 1/Viking Rocket 3.8 21:38:28 21° SE 21:41:53 58° ENE 21:46:57 10° N
NOSS 3-2 (A) 4.1 21:36:16 10° SW 21:42:09 60° NW 21:48:46 10° NNE
Shenzhou-11 Module 2.0 21:42:09 10° W 21:45:05 56° S 21:45:53 39° SE
H-2A R/B 2.2 21:41:38 15° S 21:45:45 67° WSW 21:50:47 10° NNW
NOSS 3-2 (C) 3.7 21:40:48 10° SW 21:46:45 75° NW 21:53:26 10° NE
Cosmos 1898 Rocket 4.5 21:44:29 10° NNW 21:49:29 44° WSW 21:53:56 13° S
Cosmos 1025 Rocket 4.2 21:48:54 23° ESE 21:50:01 25° E 21:53:37 10° NNE
Cosmos 1455 Rocket 3.1 21:45:49 10° N 21:50:11 80° W 21:53:03 21° S
Landsat 7 4.1 21:48:17 25° SE 21:50:55 55° ENE 21:55:35 10° N
ERS-1 Rocket 3.1 21:47:52 18° S 21:51:39 72° WSW 21:56:42 10° NNW
CZ-4C R/B 3.8 21:45:37 10° NNW 21:52:07 40° NE 21:58:31 13° ESE
DMSP B5D2-2 4.1 21:47:52 10° NNE 21:53:10 70° ESE 21:57:22 16° S
SPOT 5 2.6 21:51:46 26° SSE 21:54:12 77° ENE 21:58:46 10° N
Cosmos 1356 3.3 21:53:13 29° S 21:54:50 72° E 21:58:19 10° NNE
Cosmos 1814 Rocket 4.2 21:51:52 10° SSW 21:57:07 76° WNW 22:02:27 10° NNE
Cosmos 2360 Rocket 2.2 21:53:44 10° NNW 21:59:24 78° ENE 22:02:36 27° SSE
Cosmos 1125 Rocket 4.0 21:57:44 10° N 22:02:49 47° ENE 22:05:23 27° ESE
Cosmos 2219 Rocket 3.5 21:59:48 10° N 22:04:38 29° NE 22:07:53 17° E
Meteor 1-29 3.4 22:01:58 10° NNE 22:05:19 42° E 22:05:42 40° ESE
CZ-2C R/B 3.8 22:04:28 10° NE 22:09:12 27° E 22:10:37 24° ESE
Terra 2.1 22:07:33 31° SE 22:09:38 56° ENE 22:14:18 10° N
Meteor 1-23 Rocket 4.1 22:06:43 19° S 22:10:53 85° E 22:16:29 10° NNE
CENTAUR R/B 2.4 22:07:42 10° SSW 22:13:41 83° SE 22:20:39 10° NE
Lacrosse 5 rocket 1.5 22:11:42 10° NW 22:16:02 68° NE 22:17:34 36° ESE
Cosmos 1544 4.2 22:15:12 10° NNE 22:18:31 30° ENE 22:18:56 29° E
Cosmos 2333 Rocket 3.4 22:13:27 10° N 22:18:34 33° NE 22:21:38 20° ESE
COSMOS 2428 3.2 22:16:28 10° NNW 22:22:00 51° ENE 22:24:38 29° ESE
Okean 1-7 Rocket 4.5 22:23:22 32° ESE 22:24:03 33° E 22:28:09 10° NNE
ISS -1.8 22:21:36 10° W 22:24:32 30° NNW 22:27:30 10° NE
Helios 1A 3.8 22:22:56 26° SSW 22:24:53 44° W 22:28:54 10° NNW
Nimbus 7 Rocket 4.5 22:21:16 10° NNE 22:27:05 58° ESE 22:29:44 32° SSE
Cosmos 1092 Rocket 4.1 22:21:08 10° N 22:27:27 63° E 22:30:22 33° SSE
Cosmos 1833 4.4 22:26:01 10° SSW 22:31:45 74° WNW 22:37:28 10° NNE
Nadezhda 4 Rocket 4.0 22:25:50 10° N 22:32:10 85° W 22:35:31 30° S
SJ 16-02 1.4 22:29:21 10° NNW 22:33:47 74° WSW 22:35:06 44° S
Abrixas rocket 2.7 22:30:45 10° W 22:33:57 57° NNW 22:36:13 17° ENE
Aureole 2 Rocket 4.0 22:32:19 10° NW 22:34:37 20° WSW 22:34:51 20° WSW
Cosmos 1536 Rocket 4.4 22:31:58 19° SW 22:34:51 49° WNW 22:39:12 10° N
Spot 1 4.2 22:36:58 41° SSW 22:38:10 60° WSW 22:42:13 10° NNW
Cosmos 1726 Rocket 4.2 22:39:24 10° N 22:43:34 40° ENE 22:44:15 37° E
Cosmos 2228 4.0 22:43:06 10° N 22:47:00 33° ENE 22:47:29 32° E
Cosmos 2322 3.9 22:41:30 10° NNW 22:47:10 62° WSW 22:49:20 37° S
Cosmos 2297 Rocket 3.9 22:48:24 17° E 22:48:24 17° E 22:51:36 10° ENE
Tiangong 2 3.0 22:45:20 10° W 22:46:39 22° WSW 22:46:39 22° WSW
Okean 2 3.9 22:48:13 36° SW 22:49:41 57° W 22:53:49 10° N
Cosmos 2227 Rocket 3.7 22:51:15 20° E 22:51:15 20° E 22:55:04 10° NE
Cosmos 2322 Rocket 4.2 22:48:00 10° WNW 22:51:39 18° W 22:54:59 11° SW
Cosmos 2058 Rocket 4.0 22:48:17 10° N 22:52:28 36° ENE 22:53:07 34° E
CZ-2C R/B 3.1 22:50:39 42° S 22:52:34 82° WSW 22:58:11 10° NNW
Cosmos 2237 Rocket 3.3 22:50:43 10° N 22:55:56 35° NE 22:58:27 24° E
Cosmos 540 Rocket 4.2 22:54:43 15° SW 22:58:51 50° WNW 23:03:54 10° N
SL-16 R/B 4.4 22:56:30 10° WNW 22:59:28 15° W 23:02:26 10° SW
Cosmos 1066 Rocket 4.1 22:57:25 38° SSW 22:59:31 83° W 23:05:00 10° N
Cosmos 2026 Rocket 4.0 22:53:20 10° N 22:59:31 69° E 23:01:36 42° SSE
COSMOS 2455 4.1 23:01:04 23° ESE 23:01:04 23° ESE 23:05:20 10° ENE
Cosmos 1356 Rocket 3.9 22:59:33 40° SW 23:00:49 58° WNW 23:05:05 10° N
Helios 1B rocket 4.0 22:57:11 10° N 23:00:55 33° WNW 23:03:22 18° WSW
Cosmos 2279 Rocket 4.3 23:02:27 40° SE 23:04:11 51° E 23:10:10 10° NNE
ALOS 2 4.1 23:04:41 23° E 23:05:30 25° ENE 23:09:04 10° NNE
Meteor 1-22 Rocket 4.0 23:00:17 10° N 23:05:42 78° E 23:07:02 52° SSE
Intercosmos 25 3.7 23:09:02 54° ESE 23:09:08 55° E 23:12:43 10° NNE
Cosmos 2142 Rocket 4.4 23:08:03 43° S 23:10:12 79° E 23:16:25 10° N
NOSS 0 Rocket 4.1 23:06:33 10° NNW 23:12:47 66° ENE 23:15:02 40° SE
Cosmos 1766 3.2 23:09:10 10° N 23:13:10 81° E 23:13:10 81° E
Cosmos 1758 4.5 23:13:57 10° N 23:17:38 33° ENE 23:17:38 33° ENE
Cosmos 2219 3.1 23:16:52 47° S 23:18:36 79° ESE 23:24:23 10° NNE
Iridium 4 Rocket 4.1 23:19:43 43° ESE 23:20:54 50° E 23:26:33 10° NNE
Cosmos 1627 Rocket 4.5 23:15:44 10° NNW 23:21:54 74° W 23:23:55 44° SSW
Cosmos 1606 Rocket 3.7 23:20:30 10° NNW 23:24:53 61° W 23:25:21 57° SW
BREEZE-M R/B 4.3 23:24:50 10° WNW 23:26:22 22° NNW 23:26:22 22° NNW
Cosmos 1634 Rocket 4.3 23:27:48 34° SSW 23:30:36 64° W 23:36:55 10° N
Cosmos 1538 Rocket 4.1 23:30:56 53° ESE 23:31:15 54° ESE 23:36:21 10° NNE
Cosmos 1428 Rocket 4.4 23:25:59 10° N 23:32:09 88° W 23:33:51 51° S
CZ-4C R/B 3.1 23:34:00 10° NW 23:41:07 62° WSW 23:43:41 43° S
Cosmos 2360 Rocket 4.2 23:39:24 10° WNW 23:42:40 16° W 23:44:22 14° WSW
SL-19 R/B 4.4 23:36:42 10° NNE 23:42:57 80° ESE 23:44:29 53° S
Cosmos 2266 Rocket 4.4 23:36:53 10° N 23:43:05 53° ENE 23:44:56 40° SE
Cosmos 1733 3.8 23:41:03 10° N 23:44:21 51° NE 23:44:21 51° NE
Terra 3.8 23:46:26 16° WSW 23:47:43 17° W 23:50:51 10° NW
Cosmos 2219 Rocket 2.5 23:43:26 10° NW 23:48:48 48° WSW 23:49:36 45° SW
CZ-2C R/B 3.5 23:44:17 10° N 23:49:39 46° WNW 23:52:08 29° WSW
ADEOS Rocket 3.1 23:46:10 10° NNE 23:51:31 47° E 23:52:04 45° ESE
Cosmos 1842 3.7 23:52:07 57° WNW 23:52:07 57° WNW 23:55:46 10° N
CZ-4C R/B 3.7 23:51:50 66° E 23:51:57 66° ENE 23:56:23 10° N
Cosmos 1805 3.9 23:48:34 10° NNW 23:52:00 47° WNW 23:52:00 47° WNW
H-2A R/B 2.3 23:53:44 57° ENE 23:53:49 57° ENE 23:58:02 10° N
Lacrosse 5 rocket 3.6 23:51:55 10° W 23:53:13 15° W 23:53:13 15° W
Cosmos 1470 3.4 23:51:04 10° N 23:54:23 49° NE 23:54:23 49° NE
